星链-6136 (STARLINK-6136 )

导读 | 星芒AI

STARLINK-6136 是 SpaceX Starlink 项目中的一颗低轨通信卫星,属于第 21 批(V1.5 版本)部署的 53 颗卫星之一,于 2022 年 9 月发射。该卫星运行在约 550 公里的轨道高度,旨在为全球提供高速互联网服务。Starlink 卫星采用先进推进系统和激光通信技术,支持快速组网与高效数据传输。STARLINK-6136 在轨运行稳定,是 SpaceX 构建全球宽带网络的重要组成部分。

基本信息
目录编号:
56540
目录名称:
STARLINK-6136
国际标识:
2023-065AP
轨道中心:
EARTH
卫星名称:
星链-6136
卫星全名:
星链-6136 (STARLINK-6136 )
卫星状态:
在轨 (已飞行905 天)
发射日期:
2023-05-14 UTC
国别 :
美国 (US)
星等 :
--
轨道信息
数据来源 国际轨道数据 AOE轨道数据
星历时间 2025-11-02T02:36:37+0800
2天前
查看轨道信息
2025-10-30T10:00:00+0800
4天前
查看轨道信息
半长轴 6937.219km 6937.222km
偏心率 0.0001283 0.0001219
轨道倾角 43.005° 43.003°
近地点辐角 266.074° 247.941°
升交点赤经 198.367° 212.993°
平近点角 93.996° 293.549°
近地点 558.193km 558.241km
远地点 559.975km 559.933km
周期 95.838分钟 95.838分钟
每日圈数 15.025355 15.025345
详细信息
固有亮度:
5
最大亮度:
2.5
卫星平台:
Starlink v1.5
覆盖范围:
全球
运营商:
太空探索技术公司
运营商所在国:
美国
制造商(研发单位):
太空探索技术公司
制造商所在国:
美国
使用方式:
暂无
卫星简介
星链(Starlink)计划是由太空探索技术公司(SpaceX)提出的一个巨型低轨卫星互联网星座项目,计划在2019年至2024年间在太空搭建由约1.2万颗卫星组成的“星链”网络,其中1584颗将部署在地球上空550千米处的近地轨道,并从2020年开始工作。该卫星仍在工作。
2D轨道图
3D轨道图
轨道高度分析图
轨道倾角分析图
轨道综合分析图
查看轨道综合分析图